Simultaneous Nadir Overpasses (SNOs) Predictions

Prediction of SNOs over PacNW region [( 10.00, 139.50) to ( 22.70, 165.60)] between AQUA and NPP Satellites:

Table of predicted SNOs over PacNW region for the next 30.0 days since TLE Epoch: 8/28/2021
Index Date (AQUA) Time (AQUA) AQUA Lat,Lon Date (NPP) Time (NPP) NPP Lat,Lon Distance(km) Time Diff (sec)
1 08/31/2021 15:59:15 22.58, 147.48 08/31/2021 16:02:26 23.29, 144.46 319.53 191
2 09/08/2021 15:09:50 22.60, 159.84 09/08/2021 15:11:46 23.19, 157.11 286.87 116
3 09/11/2021 03:31:41 22.68, 147.51 09/11/2021 03:28:11 23.15, 145.51 212.07 210
4 09/16/2021 15:59:17 22.61, 147.48 09/16/2021 16:02:32 23.30, 144.45 319.60 195
5 09/24/2021 15:09:51 22.61, 159.84 09/24/2021 15:11:52 23.22, 157.11 287.67 121
